Location: Tehachapi Municipal Airport
(35.1300°N, 118.4400°W)
Time: 11:43:55
(UTC-08:00)

BREEZE M DEB (TANK) - Visible Passes

Search period start: 17 December 2017 00:00
Search period end: 27 December 2017 00:00
Orbit: 301 x 11953 km, 49.5° (Epoch: 15 December)

Date Brightness Start Highest point End Pass type
(mag) Time Alt. Az. Time Alt. Az. Time Alt. Az.
17 Dec 6.8 18:04:34 10° NW 18:19:34 87° NE 19:36:33 10° SE visible
17 Dec 8.4 22:11:38 10° WNW 22:38:58 28° WSW 23:40:55 10° SSW visible
18 Dec 6.5 17:14:36 10° NW 17:27:10 73° NE 18:34:21 10° SE visible
18 Dec 8.3 21:18:40 10° WNW 21:45:09 38° WSW 22:57:31 10° S visible
19 Dec 6.2 16:24:43 10° NW 16:35:12 61° NNE 17:29:15 10° ESE visible
19 Dec 8.1 20:27:00 10° WNW 20:51:02 49° SW 22:09:28 10° S visible
20 Dec 7.7 19:36:02 10° WNW 19:57:00 60° SW 21:17:58 10° SSE visible
21 Dec 7.3 18:45:31 10° NW 19:03:23 72° SW 20:23:27 10° SSE visible
21 Dec 8.8 23:06:36 10° W 23:22:27 13° WSW 23:44:52 10° SW visible
22 Dec 6.9 17:55:17 10° NW 18:10:20 84° SW 19:25:58 10° SSE visible
22 Dec 8.6 22:05:10 10° W 22:29:28 21° WSW 23:18:10 10° SSW visible
23 Dec 6.6 17:05:14 10° NW 17:17:54 82° NE 18:25:23 10° SE visible
23 Dec 8.4 21:10:38 10° WNW 21:35:49 31° WSW 22:38:49 10° SSW visible
24 Dec 6.3 16:15:19 10° NW 16:25:57 68° NE 17:21:54 10° SE visible
24 Dec 8.2 20:18:14 10° WNW 20:41:48 41° SW 21:53:11 10° S visible
25 Dec 8.0 19:26:52 10° WNW 19:47:45 51° SW 21:03:22 10° S visible
26 Dec 7.6 18:36:06 10° WNW 18:54:01 62° SW 20:10:14 10° SSE visible
